Location: Unspecified
(16.5877°N, 0.0000°E)
Time: 00:44:26
(UTC+00:00)

Vanguard 3 - Visible Passes

Search period start: 04 April 2026 00:00
Search period end: 14 April 2026 00:00
Orbit: 508 x 3205 km, 33.3° (Epoch: 28 March)

Date Brightness Start Highest point End Pass type
(mag) Time Alt. Az. Time Alt. Az. Time Alt. Az.
4 Apr 10.2 02:23:14 11° NE 02:23:14 11° NE 02:23:41 10° NE visible
4 Apr 9.5 04:27:08 10° NW 04:32:14 23° N 04:39:49 10° ENE visible
5 Apr 9.5 03:09:57 18° N 03:09:57 18° N 03:14:00 10° NE visible
5 Apr 9.7 05:16:36 10° NW 05:23:02 29° NNE 05:33:10 10° ENE visible
6 Apr 9.4 03:56:41 13° NNW 03:59:56 19° N 04:05:49 10° NE visible
7 Apr 10.0 02:39:32 12° NNE 02:39:32 12° NNE 02:40:26 10° NE visible
7 Apr 9.6 04:45:01 10° NW 04:50:32 26° NNE 04:58:59 10° ENE visible
8 Apr 9.4 03:26:18 15° N 03:27:43 16° NNE 03:31:59 10° NE visible
9 Apr 9.5 04:13:29 10° NNW 04:18:09 23° NNE 04:25:00 10° ENE visible
10 Apr 9.7 02:55:59 13° NNE 02:55:59 13° NNE 02:58:14 10° NE visible
10 Apr 9.5 05:02:14 10° NW 05:08:15 37° NNE 05:18:16 10° E visible
11 Apr 9.3 03:42:49 13° NNW 03:45:54 19° NNE 03:51:14 10° ENE visible
11 Apr 9.5 19:43:58 10° S 19:46:40 14° SSE 19:46:40 14° SSE visible
12 Apr 9.3 04:30:35 10° NW 04:35:50 34° NNE 04:44:18 10° E visible
12 Apr 9.4 20:31:39 10° SSW 20:34:02 18° SSW 20:34:02 18° SSW visible
13 Apr 9.4 03:12:41 16° N 03:13:43 16° NNE 03:17:41 10° ENE visible
13 Apr 8.7 05:19:17 10° NW 05:25:30 62° NNE 05:36:42 10° ESE visible
13 Apr 9.0 19:09:37 10° SSW 19:15:31 19° SSE 19:17:30 17° SE visible
13 Apr 10.1 21:21:14 10° WSW 21:21:27 11° WSW 21:21:27 11° WSW visible
